Mercredi 30 novembre 2022   -   semaine 48                    on fête: André                    soleil  (-1 mn) lever du soleil 08:06:00 coucher du soleil 17:03:00                    lune Premier croissant
Sélection

Sélection d'un SYNOP

   Synop:       

  Période à consulter:

Actuelle
Archive     

Relevé

Dernier relevé du SYNOP pour la période choisie

Conditions météo à la station de Vichy/Charmeil (4610N 00324E)    altitude 251m

Date du relevé30/11/2022 à 07:00
Base des nuages200 à 300m
Visibilité13km
Nébulosité8/8 (ciel couvert)
Vent4 km/h N
Température6.4 C
Température maxi / 12h6.4 C
Température mini / 12h0.0 C
Humidité95.9 %
Point de rosée5.8 C
Pression absolue990.2 hPa
Pression relative1020.8 hPa
Variation pression0.0 hPa en baisse puis en hausse
Précipitations0 mm les 12 dernières heures

24h

Historique de la période choisie

Certaines stations ne diffusent pas en continu, d'où l'absence possible de données à certaines heures. Le tableau ci-dessous récapitule l'historique des relevés de la station de Vichy/Charmeil.

Date - Heure Base des nuages Visibilité Nébulosité Vent - Secteur Température Humidité Point rosée Pression / Géopotentiel Précipitations Temps
30/11 07:00 200 à 300m 13km 8/8 4 km/h N 6.4 C 95.9 % 5.8 C 1020.8 hPa 0 mm/12h
30/11 06:00 200 à 300m 9km 8/8 2 km/h N 6.4 C 95.9 % 5.8 C 1020.8 hPa
30/11 05:00 200 à 300m 11km 8/8 2 km/h N 6.4 C 95.3 % 5.7 C 1020.7 hPa
30/11 04:00 100 à 200m 9km 8/8 4 km/h NNO 6.3 C 95.9 % 5.7 C 1020.8 hPa
30/11 03:00 100 à 200m 7km 8/8 4 km/h NNO 6.1 C 97.3 % 5.7 C 1020.9 hPa
30/11 02:00 100 à 200m 9km 8/8 4 km/h NNO 6.0 C 95.9 % 5.4 C 1021.0 hPa
30/11 01:00 100 à 200m 10km 8/8 2 km/h N 6.0 C 95.9 % 5.4 C 1021.4 hPa 0 mm/6h
30/11 00:00 100 à 200m 13km 8/8 2 km/h N 5.9 C 95.3 % 5.2 C 1021.4 hPa
29/11 23:00 100 à 200m 15km 8/8 2 km/h NO 5.9 C 95.3 % 5.2 C 1021.5 hPa
29/11 22:00 200 à 300m 19km 8/8 2 km/h NNE 5.8 C 95.9 % 5.2 C 1021.4 hPa
29/11 21:00 200 à 300m 17km 8/8 0 km/h N 5.8 C 95.9 % 5.2 C 1021.4 hPa
29/11 20:00 1000 à 1500m 19km 8/8 2 km/h NNO 5.8 C 95.3 % 5.1 C 1021.2 hPa
29/11 19:00 1000 à 1500m 20km 8/8 2 km/h NNO 5.9 C 93.9 % 5.0 C 1020.9 hPa 0.8 mm/12h
29/11 18:00 300 à 600m 20km 8/8 4 km/h N 6.1 C 90.7 % 4.7 C 1020.8 hPa
29/11 17:00 200 à 300m 19km 8/8 7 km/h NNE 6.5 C 92.7 % 5.4 C 1020.3 hPa
29/11 16:00 300 à 600m 20km 8/8 7 km/h N 7.4 C 90.8 % 6.0 C 1019.7 hPa
29/11 15:00 300 à 600m 9km 8/8 6 km/h N 8.1 C 84.8 % 5.7 C 1019.3 hPa
29/11 14:00 300 à 600m 20km 8/8 6 km/h NNO 8.8 C 79.2 % 5.4 C 1019.1 hPa
29/11 13:00 300 à 600m 20km 8/8 6 km/h NNO 8.9 C 83.2 % 6.2 C 1019.1 hPa traces/6h
29/11 12:00 300 à 600m 19km 8/8 2 km/h ONO 7.7 C 87.8 % 5.8 C 1019.5 hPa
29/11 11:00 300 à 600m 18km 8/8 4 km/h N 7.0 C 94.0 % 6.1 C 1019.7 hPa
29/11 10:00 300 à 600m 19km 8/8 0 km/h N 6.3 C 95.9 % 5.7 C 1019.4 hPa
29/11 09:00 300 à 600m 16km 8/8 2 km/h SSE 5.8 C 97.9 % 5.5 C 1019.0 hPa
29/11 08:00 300 à 600m 18km 8/8 2 km/h S 5.6 C 99.3 % 5.5 C 1018.9 hPa
29/11 07:00 300 à 600m 19km 8/8 2 km/h S 5.7 C 97.9 % 5.4 C 1018.5 hPa 4 mm/12h

Source: ogimet